FW7275 Weather Reports


Display with metric or nautical units.
time (UTC)temp
F
wind
direction
speed
MPH
gust
MPH
rain 1hr
in
rain 24hr
in
rain mn
in
humidity
%
barometer
mb
20260906103036 76 0 0.0 0.0 0.00 0.00 0.00 53
20260906102028 75 0 0.0 0.0 0.00 0.00 0.00 54
20260906101018 75 0 0.0 0.0 0.00 0.00 0.00 55
20260906100031 75 0 0.0 0.0 0.00 0.00 0.00 55
20260906095022 74 0 0.0 0.0 0.00 0.00 0.00 55
20260906094021 74 0 0.0 0.0 0.00 0.00 0.00 55
20260906093035 74 0 0.0 0.0 0.00 0.00 0.00 56
20260906092030 74 0 0.0 0.0 0.00 0.00 0.00 57
20260906091024 74 0 0.0 0.0 0.00 0.00 0.00 55
20260906090024 73 0 0.0 0.0 0.00 0.00 0.00 55
20260906085035 72 0 0.0 0.0 0.00 0.00 0.00 56
20260906084024 72 0 0.0 0.0 0.00 0.00 0.00 57
20260906083033 71 0 0.0 0.0 0.00 0.00 0.00 57
20260906082031 71 0 0.0 0.0 0.00 0.00 0.00 59
20260906075017 70 0 0.0 0.0 0.00 0.00 0.00 63
20260906074034 71 0 0.0 0.0 0.00 0.00 0.00 64
20260906073031 70 0 0.0 0.0 0.00 0.00 0.00 66
20260906072024 68 0 0.0 0.0 0.00 0.00 0.00 68
20260906071019 69 0 0.0 0.0 0.00 0.00 0.00 68
20260906070039 68 0 0.0 0.0 0.00 0.00 0.00 71
20260906065031 66 0 0.0 0.0 0.00 0.00 0.00 77
20260906064022 66 0 0.0 0.0 0.00 0.00 0.00 80
20260906063023 62 0 0.0 0.0 0.00 0.00 0.00 86
20260906062022 60 0 0.0 0.0 0.00 0.00 0.00 90
20260906061019 55 0 0.0 0.0 0.00 0.00 0.00 92
20260906055023 54 0 0.0 0.0 0.00 0.00 0.00 92
20260906054020 54 0 0.0 0.0 0.00 0.00 0.00 92
20260906053035 54 0 0.0 0.0 0.00 0.00 0.00 92
20260906052026 54 0 0.0 0.0 0.00 0.00 0.00 92
20260906050027 54 0 0.0 0.0 0.00 0.00 0.00 92
20260906045031 54 0 0.0 0.0 0.00 0.00 0.00 91
20260906044025 54 0 0.0 0.0 0.00 0.00 0.00 91
20260906043028 55 0 0.0 0.0 0.00 0.00 0.00 91
20260906042026 55 0 0.0 0.0 0.00 0.00 0.00 91
20260906041018 56 0 0.0 0.0 0.00 0.00 0.00 91
20260906035028 56 0 0.0 0.0 0.00 0.00 0.00 91
20260906034034 56 0 0.0 0.0 0.00 0.00 0.00 91
20260906033027 56 0 0.0 0.0 0.00 0.00 0.00 91
20260906031023 55 0 0.0 0.0 0.00 0.00 0.00 91
20260906030031 55 0 0.0 0.0 0.00 0.00 0.00 91
20260906025017 55 0 0.0 0.0 0.00 0.00 0.00 91
20260906024017 55 0 0.0 0.0 0.00 0.00 0.00 91
20260906023025 55 0 0.0 0.0 0.00 0.00 0.00 91
20260906022024 55 0 0.0 0.0 0.00 0.00 0.00 91
20260906021026 55 0 0.0 0.0 0.00 0.00 0.00 91
20260906020038 55 0 0.0 0.0 0.00 0.00 0.00 91
20260906015024 55 0 0.0 0.0 0.00 0.00 0.00 90
20260906014034 56 0 0.0 0.0 0.00 0.00 0.00 90
20260906013019 56 0 0.0 0.0 0.00 0.00 0.00 90
20260906010037 57 0 0.0 0.0 0.00 0.00 0.00 89
20260906005028 57 0 0.0 0.0 0.00 0.00 0.00 89
20260906004019 57 0 0.0 0.0 0.00 0.00 0.00 89
20260906003024 58 0 0.0 0.0 0.00 0.00 0.00 89
20260906001027 59 0 0.0 0.0 0.00 0.00 0.00 89
20260906000030 59 0 0.0 0.0 0.00 0.00 0.00 89
20260905235020 59 0 0.0 0.0 0.00 0.00 0.16 89
20260905234031 59 0 0.0 0.0 0.00 0.00 0.16 89
20260905233031 58 0 0.0 0.0 0.00 0.00 0.16 89
20260905232022 58 0 0.0 0.0 0.00 0.00 0.16 89
20260905230034 57 0 0.0 0.0 0.00 0.00 0.16 88
20260905225020 57 0 0.0 0.0 0.00 0.00 0.16 88
20260905224033 57 0 0.0 0.0 0.00 0.00 0.16 88
20260905223025 57 0 0.0 0.0 0.00 0.00 0.16 88
20260905222033 58 0 0.0 0.0 0.00 0.00 0.16 88
20260905221028 58 0 0.0 0.0 0.00 0.00 0.16 87
20260905215024 59 0 0.0 0.0 0.00 0.00 0.16 86
20260905213031 60 0 0.0 0.0 0.00 0.00 0.16 86
20260905211031 61 0 0.0 0.0 0.00 0.00 0.16 84
20260905210034 62 0 0.0 0.0 0.00 0.00 0.16 83
20260905205027 63 0 0.0 0.0 0.00 0.00 0.16 83
20260905203033 64 0 0.0 0.0 0.00 0.00 0.16 80
20260905202032 64 0 0.0 0.0 0.00 0.00 0.16 80
20260905201024 65 0 0.0 0.0 0.00 0.00 0.16 79
20260905200031 66 0 0.0 0.0 0.00 0.00 0.16 78
20260905195025 66 0 0.0 0.0 0.00 0.00 0.16 78
20260905194030 66 0 0.0 0.0 0.00 0.00 0.16 78
20260905193027 66 0 0.0 0.0 0.00 0.00 0.16 79
20260905192026 66 0 0.0 0.0 0.00 0.00 0.16 80
20260905191024 66 0 0.0 0.0 0.00 0.00 0.16 81
20260905185021 66 0 0.0 0.0 0.00 0.00 0.16 83
20260905184031 65 0 0.0 0.0 0.00 0.00 0.16 83
20260905183025 65 0 0.0 0.0 0.00 0.00 0.16 83
20260905182025 66 0 0.0 0.0 0.00 0.00 0.16 82
20260905181020 66 0 0.0 0.0 0.00 0.00 0.16 81
20260905175022 68 0 0.0 0.0 0.00 0.00 0.16 80
20260905174027 68 0 0.0 0.0 0.00 0.00 0.16 79
20260905173036 69 0 0.0 0.0 0.00 0.00 0.16 78
20260905172023 69 0 0.0 0.0 0.00 0.00 0.16 77
20260905171020 70 0 0.0 0.0 0.00 0.00 0.16 75
20260905170035 72 0 0.0 0.0 0.00 0.00 0.16 73
20260905165029 72 0 0.0 0.0 0.00 0.00 0.16 72
20260905163026 73 0 0.0 0.0 0.00 0.00 0.16 71
20260905161032 73 0 0.0 0.0 0.00 0.00 0.16 71
20260905160037 73 0 0.0 0.0 0.00 0.00 0.16 71
20260905155020 72 0 0.0 0.0 0.00 0.00 0.16 72
20260905154021 72 0 0.0 0.0 0.00 0.00 0.16 71
20260905153030 72 0 0.0 0.0 0.00 0.00 0.16 71
20260905152034 72 0 0.0 0.0 0.00 0.00 0.16 70
20260905151021 72 0 0.0 0.0 0.00 0.00 0.16 69
20260905144033 72 0 0.0 0.0 0.00 0.00 0.16 69
20260905143032 72 0 0.0 0.0 0.00 0.00 0.16 70
20260905142023 72 0 0.0 0.0 0.00 0.00 0.16 71
20260905141021 71 0 0.0 0.0 0.00 0.00 0.16 72
20260905140032 71 0 0.0 0.0 0.00 0.00 0.16 72
20260905135024 71 0 0.0 0.0 0.00 0.00 0.16 74
20260905134021 70 0 0.0 0.0 0.00 0.00 0.16 75
20260905133034 68 0 0.0 0.0 0.00 0.00 0.16 78
20260905132031 68 0 0.0 0.0 0.00 0.00 0.16 78
20260905131018 66 0 0.0 0.0 0.00 0.00 0.16 81
20260905130039 66 0 0.0 0.0 0.00 0.00 0.16 81
20260905125025 66 0 0.0 0.0 0.00 0.00 0.16 83
20260905124030 66 0 0.0 0.0 0.00 0.00 0.16 84
20260905123029 65 0 0.0 0.0 0.00 0.00 0.16 84
20260905122020 65 0 0.0 0.0 0.00 0.00 0.16 83
20260905120027 66 0 0.0 0.0 0.00 0.00 0.16 83
20260905115028 65 0 0.0 0.0 0.00 0.00 0.16 84
20260905114019 65 0 0.0 0.0 0.01 0.00 0.16 84
20260905113035 64 0 0.0 0.0 0.01 0.00 0.16 85
20260905112025 64 0 0.0 0.0 0.01 0.00 0.16 85
20260905111024 63 0 0.0 0.0 0.01 0.00 0.16 86
20260905110029 63 0 0.0 0.0 0.01 0.00 0.16 84
20260905105026 63 0 0.0 0.0 0.01 0.00 0.16 85
20260905104022 62 0 0.0 0.0 0.02 0.00 0.15 86